Regional Weather Roundup
Issued by NWS

Home | Current Version | Previous Version | Text Only | Print | Product List | Glossary On
Versions: 1 2 3 4 5 6 7 8 9 10 11 12 13 14 15 16 17 18 19 20 21 22 23 24 25 26 27
000
ASUS46 KPQR 290310
RWROR

OREGON REGIONAL WEATHER ROUNDUP
NATIONAL WEATHER SERVICE PORTLAND OR
800 PM PDT SUN AUG 28 2016

NOTE: "FAIR" INDICATES FEW OR NO CLOUDS BELOW 12,000 FEET WITH
NO SIGNIFICANT WEATHER AND/OR OBSTRUCTIONS TO VISIBILITY.

ORZ001>013-290400-
NORTHWEST OREGON


CITY           SKY/WX    TMP DP  RH WIND       PRES   REMARKS
ASTORIA        CLEAR     61  53  75 W7        30.06S
NEWPORT        CLEAR     55  54  94 SW5       30.11S
PORTLAND       PTCLDY    78  53  41 NW9       29.98S
VANCOUVER WA   CLEAR     78  52  40 NW6       29.98R
SCAPPOOSE      CLEAR     75  52  44 N7        29.98R
HILLSBORO      CLEAR     78  48  34 NE7       29.98S
AURORA         CLEAR     79  49  34 CALM      29.99R
MCMINNVILLE    CLEAR     73  54  51 SW13      29.99R
SALEM          CLEAR     78  51  38 W7        29.98R
CORVALLIS        N/A     68  54  60 W20       30.01S
EUGENE         PTCLDY    74  56  53 SW12      30.00R
$$

ORZ021-028-290400-
SOUTHWEST OREGON


CITY           SKY/WX    TMP DP  RH WIND       PRES   REMARKS
NORTH BEND     CLOUDY    55  52  88 SW5       30.12S
BROOKINGS      CLOUDY    54  51  90 CALM      30.12S
ROSEBURG       CLEAR     79  53  40 N9        30.00R
SEXTON SUMMIT  PTCLDY    69  35  28 CALM      30.14R
MEDFORD        CLEAR     87  39  18 NW8       29.96R
$$

ORZ014>016-041-290400-
COLUMBIA GORGE


CITY           SKY/WX    TMP DP  RH WIND       PRES   REMARKS
TROUTDALE      CLEAR     77  55  46 CALM      29.97S
THE DALLES     CLEAR     84  46  26 NW8       29.93R
$$

ORZ029>031-041-044-049-050-061>064-502-503-505>511-290400-
EASTERN OREGON


CITY           SKY/WX    TMP DP  RH WIND       PRES   REMARKS
REDMOND        CLEAR     81  42  25 NW15      30.04R
BEND           CLEAR     79  46  31 NW10G18   30.06R
PRINEVILLE     CLEAR     82  43  24 NW14G22   30.04R
KLAMATH FALLS  CLEAR     73  36  25 SE9       30.11R
LAKEVIEW       CLEAR     72  28  20 SW9       30.18R
HERMISTON      PTCLDY    77  43  29 NE6       29.95R
PENDLETON      CLEAR     77  35  21 NE9       30.00R
JOHN DAY       CLEAR     83  40  21 CALM      30.06R
MEACHAM        CLEAR     67  35  30 CALM      30.14R
LA GRANDE      CLEAR     75  39  27 W8        30.05R
BAKER CITY     CLEAR     73  46  38 SW3       30.08R
BURNS          CLEAR     69  37  30 NE9       30.10R
ROME             N/A     83  24  11 CALM      30.08R
ONTARIO        CLEAR     78  51  38 CALM      30.01R
$$




USA.gov is the U.S. government's official web portal to all federal, state and local government web resources and services.